Dewpoint
-3 -3 -0 -2 -3 -4 -5 -6 -2 -4 -6 -9 -7 -3 1 3 2 2 4 6 5 3 4 3 5 7 8 8 9 10 8 8 6 7 5 5 3 2 -1 0 -2 -1 -1 -1
-3 -1 -4 -5 -4 -3 -3 -2 -3 -7 -12 -13 -5 -4 -4 4 4 2 5 4 6 3 3 3 6 8 9 9 9 9 8 8 6 9 5 4 3 2 1 -1 0 1 1 -1
-1 -2 -2 -3 -3 -3 -3 -1 -3 -5 -9 -8 -3 -0 1 -0 2 5 6 4 6 5 5 5 4 8 9 9 9 9 8 6 9 9 6 5 4 2 1 1 2 1 1 -1
-0 -3 -2 -2 -2 -4 -0 -3 -1 -3 -2 -1 -4 3 5 0 -1 -0 3 5 5 5 5 5 6 8 9 10 10 10 9 8 9 7 5 5 3 2 2 2 2 1 -2 -7
-1 0 0 0 -2 -4 -2 -3 -2 -1 -2 2 -0 3 4 1 0 1 0 1 4 5 6 7 7 7 9 10 10 10 10 9 5 5 4 2 1 3 2 1 1 -4 -5 -14
-3 -4 -2 -2 -4 -4 -3 -3 -2 -1 -0 5 3 2 5 4 2 1 2 0 2 5 7 7 7 8 8 9 10 9 9 8 5 3 2 1 2 3 2 1 -3 -1 -3 -14
-2 -4 -1 -1 -3 -3 -1 1 4 3 7 6 3 5 2 3 0 1 2 0 3 5 6 8 8 9 9 9 10 9 9 6 6 4 2 2 2 1 0 -2 0 -0 -9 -22
2 3 -1 -4 -6 -1 -1 -1 5 5 9 7 4 5 2 -2 1 1 -0 0 0 5 7 8 9 9 9 9 10 8 6 6 5 2 2 2 2 -0 -1 0 -1 -9 -20 -24
3 3 1 -1 -2 -3 -3 0 -1 7 7 9 6 0 -2 1 2 4 3 2 3 6 7 7 9 9 9 10 8 6 5 5 4 2 2 1 -1 -1 -0 -2 -9 -16 -21 -22
6 5 4 2 1 -3 -3 -3 2 4 7 5 -1 -0 2 1 1 4 5 3 6 7 7 8 9 9 9 9 8 6 4 3 2 2 1 -1 -1 -1 -2 -8 -13 -14 -15 -18
4 5 6 3 2 -2 -1 -2 -3 -1 4 5 7 3 -5 -3 -3 2 4 5 6 7 6 6 7 7 7 6 5 4 2 2 2 2 0 -2 -1 -2 -5 -10 -9 -12 -15 -14
3 5 7 5 -2 -4 -4 -2 1 3 0 5 5 3 -5 -6 -5 -4 -1 4 5 5 5 4 4 4 3 2 2 3 3 2 2 2 -2 -2 -3 -4 -7 -7 -7 -8 -9 -10
1 -0 3 2 1 0 -2 -3 -4 3 3 3 3 2 -5 -6 -7 -6 -5 -2 4 4 4 3 2 2 1 2 3 3 3 2 2 -0 -3 -2 -3 -4 -4 -5 -5 -6 -7 -8
1 1 1 3 2 1 1 -1 -3 -1 3 2 3 0 -4 -5 -5 -5 -5 -5 -1 3 3 3 1 0 0 1 2 3 3 3 1 -2 -2 -2 -3 -5 -4 -4 -5 -6 -6 -6
2 2 -0 1 2 0 -1 0 -0 -4 0 1 -0 0 -2 -5 -5 -5 -4 -5 -5 -3 0 2 2 1 1 2 3 3 3 3 2 -2 -2 -4 -6 -5 -4 -5 -5 -4 -5 -5
2 5 3 3 2 2 1 1 -0 -0 -2 -4 -3 -3 -6 -5 -6 -6 -5 -5 -4 -4 -4 -3 -0 2 2 3 3 3 3 3 1 -2 -3 -5 -6 -5 -5 -4 -2 -6 -8 -8
4 4 4 5 2 1 1 -0 -0 -0 -1 -2 -2 -4 -5 -2 -3 -5 -5 -5 -4 -3 -3 -3 -0 2 3 4 3 3 3 2 -0 -2 -3 -7 -6 -6 -4 -3 -2 -8 -7 -8
5 5 4 4 2 -0 -0 -3 -5 -2 -3 -4 -3 -2 -3 -4 -1 -1 -2 -2 -2 -1 -1 -1 -1 -0 2 3 3 3 3 1 -2 -2 -5 -7 -6 -5 -3 -2 -6 -8 -9 -8
6 4 5 3 4 1 -2 -4 -2 -4 -2 -3 -2 -3 -3 -4 -2 1 -1 -1 -2 -2 -2 -1 -2 -2 -1 -0 1 2 2 -1 -2 -5 -6 -6 -6 -4 -2 -5 -8 -8 -9 -10
2 3 2 4 4 1 1 -3 -4 -4 1 -1 -2 -1 -1 -2 1 2 -0 -1 -1 -1 -1 -1 -0 -0 -0 0 1 -0 -1 -3 -6 -6 -6 -5 -4 -2 -2 -6 -10 -9 -8 -9
4 3 3 3 3 3 2 -4 -5 -1 1 -1 -2 -1 -1 1 1 -1 -1 -0 0 0 -0 -1 -0 0 0 0 -0 -2 -4 -5 -6 -5 -4 -3 -2 -2 -5 -10 -9 -8 -8 -10
4 5 4 6 6 6 -3 -3 -3 2 -1 -2 -2 -2 -1 -1 1 1 1 1 0 -0 -0 0 1 -1 -2 -3 -3 -4 -5 -4 -3 -3 -2 -2 -2 -5 -10 -7 -8 -12 -14 -12
5 5 5 4 4 2 -4 -3 -2 -3 -3 -2 -1 1 1 2 3 2 1 0 -2 -3 -2 -2 -1 -2 -4 -4 -4 -4 -3 -3 -2 -1 -0 -1 -7 -12 -15 -13 -14 -13 -11 -7
2 1 4 1 -2 -1 -5 -4 -2 -1 1 2 3 3 3 3 2 1 -0 -2 -4 -5 -5 -5 -5 -5 -5 -5 -5 -5 -4 -3 -1 -1 -6 -9 -13 -16 -15 -14 -11 -8 -6 -6
4 0 2 2 -1 2 3 3 3 3 3 3 3 2 1 2 -1 -1 -3 -4 -5 -5 -5 -5 -4 -4 -4 -3 -2 -2 -2 -3 -7 -10 -16 -15 -15 -15 -14 -13 -10 -8 -6 -6
2 2 2 2 3 4 3 3 3 3 2 0 1 0 -1 -1 -2 -3 -3 -3 -2 -1 -1 -2 -1 -1 -1 -2 -5 -8 -12 -14 -16 -16 -14 -14 -14 -14 -13 -11 -10 -8 -6 -5
Wind_Speed
7 2 5 9 2 6 4 2 7 8 10 6 8 10 11 15 22 24 11 3 15 27 28 25 26 27 22 23 29 25 25 25 24 13 9 16 16 12 8 6 8 4 3 5
0 4 7 1 8 7 9 7 10 9 6 5 2 7 12 14 13 28 27 36 31 30 31 28 31 30 29 28 26 22 21 23 20 14 12 15 14 10 8 7 6 5 2 5
3 4 6 4 13 6 4 6 3 5 3 3 5 5 3 3 13 20 36 37 36 35 36 31 33 33 30 30 29 22 19 19 22 22 21 23 18 13 13 11 8 5 7 10
5 6 6 8 11 8 3 4 6 3 5 2 5 1 5 5 9 6 33 38 38 36 35 33 30 33 32 29 26 22 20 24 20 29 24 27 24 21 19 17 13 10 11 14
6 2 6 10 13 6 6 7 2 2 4 7 4 4 5 1 12 13 8 18 36 38 40 35 31 27 25 29 28 25 26 27 28 25 25 26 24 25 25 20 14 9 11 14
7 7 3 4 6 6 2 2 3 3 3 3 7 6 4 10 18 9 3 13 13 36 35 31 30 27 23 25 26 28 31 31 29 26 25 27 29 29 24 17 11 10 15 14
4 5 5 7 3 3 1 3 3 4 5 3 13 4 10 12 15 12 15 22 13 29 30 33 30 30 29 30 27 31 33 34 31 30 29 28 26 23 19 12 10 13 13 12
4 5 6 3 5 6 3 6 5 5 1 5 4 4 6 15 27 27 31 24 22 22 27 26 28 27 33 32 34 31 34 33 31 29 28 26 24 19 14 10 11 12 10 11
4 1 7 14 10 4 3 1 5 6 4 2 4 9 6 9 7 11 20 19 18 22 22 24 28 30 33 35 34 34 32 30 29 28 27 25 22 16 11 10 9 8 9 11
6 3 1 13 17 9 4 3 5 3 5 4 3 4 1 4 7 11 8 16 26 24 24 24 27 34 35 36 33 26 25 28 27 25 23 20 16 13 11 10 8 9 13 11
6 5 5 6 9 9 1 3 3 3 5 4 1 5 3 5 3 11 17 30 33 31 29 28 31 33 32 30 29 26 26 26 26 26 23 21 15 12 10 8 11 10 12 12
7 5 3 11 14 7 6 4 6 5 4 2 4 5 3 6 3 6 14 31 36 36 34 32 33 34 33 33 32 29 31 29 29 28 23 19 15 13 11 10 11 14 13 15
2 1 2 6 5 6 4 5 4 4 3 5 5 5 2 5 4 2 5 6 31 35 34 34 35 35 36 36 34 32 32 32 31 30 26 21 18 16 12 11 15 14 17 18
5 2 6 6 7 3 3 5 6 5 4 3 5 5 11 6 8 9 7 5 9 32 34 35 38 40 39 39 38 35 33 34 31 29 25 21 18 16 15 16 14 15 19 19
5 4 1 3 5 5 1 5 7 5 6 7 7 6 10 1 3 5 14 8 5 6 9 23 35 39 37 37 33 30 30 33 31 28 22 20 13 14 17 15 12 16 21 20
1 2 2 2 5 7 4 8 7 6 3 2 5 6 3 11 15 13 12 13 5 2 6 11 10 29 34 35 32 29 29 30 32 29 24 17 15 23 16 13 10 13 15 20
5 5 3 3 4 6 6 7 5 6 5 3 5 7 5 8 11 15 13 11 12 5 3 7 7 4 19 28 26 27 30 31 32 29 23 22 23 21 17 13 14 14 16 18
5 4 3 2 3 2 8 4 3 4 3 7 9 10 11 11 22 27 23 19 17 12 9 8 7 7 7 13 18 23 28 30 28 25 25 24 22 18 13 11 12 13 18 22
3 4 2 4 4 5 8 3 3 3 4 5 8 7 11 10 14 17 15 13 12 11 12 13 10 10 12 18 19 21 26 27 27 26 25 19 15 12 8 4 13 17 26 20
6 5 4 2 4 6 6 2 4 4 2 6 13 9 10 10 4 3 12 13 15 13 11 11 12 9 8 13 15 19 24 24 23 21 14 10 8 4 4 9 21 22 20 23
3 3 5 2 2 7 6 6 2 6 6 7 9 10 12 4 2 7 12 11 5 4 6 9 11 7 1 9 18 26 27 25 22 14 15 12 5 6 7 16 21 22 24 26
6 5 3 3 2 5 7 4 6 6 11 10 9 8 8 7 8 11 13 10 4 3 3 2 3 4 11 14 16 22 22 18 18 14 5 3 8 7 15 19 22 22 21 17
1 6 5 6 5 8 6 12 12 10 9 6 7 9 7 10 11 12 10 6 7 5 4 2 2 3 7 8 8 12 10 6 5 8 14 9 7 16 19 19 18 17 16 14
2 4 4 5 2 6 13 7 12 16 15 10 11 8 7 11 8 9 7 7 6 5 4 4 5 7 6 5 5 6 9 13 16 8 6 11 17 16 15 16 14 16 18 20
5 5 5 2 4 19 18 18 16 16 13 12 10 7 10 5 11 6 7 7 6 6 7 7 8 8 6 6 6 4 3 3 5 10 13 14 15 15 15 16 17 17 18 20
5 6 4 4 3 17 10 15 10 12 13 12 9 9 10 8 10 6 8 8 7 7 8 9 10 8 5 4 5 9 12 14 15 15 15 15 15 16 17 19 19 15 18 20
Wind_Direction
201 83 226 267 226 280 305 226 205 234 245 165 166 153 146 148 152 154 153 168 210 179 175 174 179 185 184 172 172 181 175 174 179 188 191 157 163 167 159 165 166 202 288 319
170 248 302 60 296 313 311 299 281 254 183 113 77 182 152 162 174 170 165 166 209 176 171 173 179 185 184 179 179 183 184 184 191 188 169 174 170 172 158 187 189 184 231 290
150 227 337 240 253 259 287 263 336 94 85 76 99 42 15 255 204 186 177 186 198 173 178 180 182 188 187 182 184 186 178 185 185 204 183 174 179 168 166 168 171 218 289 305
215 239 275 274 269 273 180 241 347 44 66 244 85 171 333 324 327 331 175 190 183 186 184 178 182 184 185 182 190 186 178 177 196 185 183 180 180 177 174 180 195 232 277 293
267 157 244 257 257 287 218 207 238 140 182 90 292 82 285 147 237 270 276 190 192 190 185 184 185 183 193 191 184 182 185 186 183 190 203 196 194 189 186 195 221 273 308 311
224 181 128 285 202 231 217 27 295 324 157 106 228 164 234 189 218 227 193 220 203 188 182 182 184 191 198 208 188 194 192 192 194 196 200 201 199 198 203 218 248 303 312 298
274 228 174 235 250 145 84 45 7 1 13 229 38 40 260 225 218 217 216 198 186 176 180 182 184 189 198 207 203 196 196 198 203 209 208 209 212 214 220 236 273 295 291 290
160 340 7 299 210 184 195 152 165 169 123 287 290 227 238 215 201 204 216 217 205 176 173 185 192 205 202 198 198 201 201 206 211 213 210 213 218 220 232 258 283 287 292 294
117 295 335 328 344 136 300 62 175 107 8 67 254 249 338 85 158 201 206 214 206 177 183 198 197 194 192 195 197 200 205 214 221 221 217 216 219 230 241 260 268 277 296 307
192 138 112 312 316 297 154 268 26 22 134 240 283 299 175 84 170 197 193 205 186 180 190 198 201 192 189 195 200 204 216 225 229 230 224 217 223 229 252 253 262 291 297 294
146 110 306 125 242 238 299 274 213 141 131 169 168 276 184 89 94 170 201 192 183 186 189 189 194 197 204 212 220 221 212 222 230 232 228 219 224 242 250 255 286 293 299 302
203 147 144 218 229 204 195 214 170 125 256 186 149 266 207 142 140 143 175 189 192 193 194 196 201 205 209 215 218 219 212 217 226 229 226 228 231 256 247 268 283 291 302 306
168 176 61 338 332 347 235 227 228 129 91 187 133 259 235 170 167 107 128 149 197 196 196 199 203 206 209 211 210 208 209 213 222 224 223 231 236 245 244 250 274 283 295 304
99 149 151 188 214 211 269 233 255 154 113 204 204 267 294 259 191 194 198 194 160 202 202 206 208 210 212 210 208 208 208 214 219 223 226 232 235 240 259 249 253 288 290 295
117 165 293 290 323 321 298 282 277 247 203 152 236 226 259 353 159 87 209 201 219 110 191 228 219 215 213 205 203 207 209 212 219 224 228 222 239 240 226 232 268 310 287 300
122 198 96 289 348 36 351 329 327 318 312 265 234 242 190 146 102 74 60 60 85 58 306 344 344 222 212 210 210 213 221 217 219 217 216 219 220 208 227 243 271 301 303 287
128 122 94 238 356 17 346 240 242 255 281 254 289 262 43 57 67 49 37 35 41 355 323 305 360 248 231 220 220 229 227 219 216 219 211 209 211 215 221 247 287 318 301 300
125 112 96 180 36 49 241 241 143 164 42 48 75 77 77 72 73 61 62 66 58 53 20 350 320 313 253 242 236 231 222 216 212 205 203 208 212 226 236 276 325 287 289 273
129 129 101 134 182 283 320 19 80 98 48 47 82 56 70 67 70 48 45 52 45 34 16 4 336 295 273 258 253 224 214 206 197 197 200 200 214 226 246 335 278 275 279 281
57 86 113 123 140 197 235 143 27 55 73 47 61 47 44 52 59 273 20 8 352 330 327 334 331 310 270 249 226 209 186 175 171 176 186 203 198 230 300 296 283 286 286 286
44 18 142 123 171 288 248 139 95 92 222 90 63 70 55 73 131 359 1 7 45 360 329 312 312 304 196 186 191 164 165 175 182 202 220 214 203 259 297 282 282 287 286 285
159 141 183 91 100 282 172 74 133 183 93 72 51 42 48 39 36 37 32 50 47 26 1 325 290 110 130 156 179 163 168 169 193 203 174 312 282 292 276 276 287 292 298 294
90 171 175 161 211 230 138 118 128 125 109 87 76 58 52 67 49 41 65 67 82 82 100 97 326 119 128 143 163 176 161 178 208 308 309 280 268 271 288 292 290 301 310 280
102 130 108 77 280 191 192 170 117 115 101 91 86 87 81 75 64 88 96 115 126 126 105 69 37 34 31 11 344 332 321 305 296 282 251 270 289 299 294 295 297 301 304 305
198 123 156 224 283 86 71 83 104 106 108 99 104 99 94 100 95 113 116 106 88 58 35 21 13 11 20 16 5 352 313 305 311 307 305 304 301 297 299 299 301 292 284 292
171 174 147 206 125 106 91 100 118 116 108 107 124 106 97 106 114 114 95 79 65 50 41 49 59 56 42 25 11 358 341 327 318 311 305 302 300 300 301 301 299 288 288 285
Height
1500 1506 1509 1497 1494 1491 1492 1495 1502 1496 1488 1494 1497 1504 1507 1506 1508 1512 1519 1525 1528 1525 1528 1532 1534 1536 1538 1541 1544 1548 1551 1554 1557 1560 1561 1563 1563 1564 1567 1569 1571 1571 1570 1571
1502 1507 1493 1493 1492 1494 1497 1504 1503 1489 1486 1492 1500 1502 1500 1506 1506 1506 1515 1519 1524 1526 1528 1531 1531 1533 1534 1537 1542 1545 1550 1553 1555 1557 1560 1561 1561 1564 1567 1568 1569 1569 1569 1569
1500 1496 1494 1494 1493 1497 1499 1500 1496 1494 1488 1490 1497 1510 1509 1505 1507 1507 1513 1511 1517 1518 1523 1528 1529 1528 1531 1534 1538 1542 1547 1550 1552 1554 1557 1560 1561 1563 1563 1564 1564 1564 1565 1565
1495 1491 1494 1496 1496 1494 1506 1489 1492 1490 1499 1518 1500 1538 1516 1504 1504 1506 1507 1510 1511 1515 1518 1520 1525 1526 1528 1532 1536 1539 1542 1546 1549 1551 1553 1554 1556 1557 1559 1559 1561 1562 1562 1562
1494 1493 1496 1499 1495 1489 1493 1484 1489 1493 1498 1507 1507 1524 1521 1509 1510 1503 1502 1503 1505 1506 1509 1513 1519 1525 1531 1533 1535 1539 1541 1543 1546 1548 1550 1551 1552 1553 1554 1557 1558 1559 1558 1556
1488 1487 1492 1490 1484 1485 1483 1488 1491 1494 1507 1534 1509 1513 1518 1511 1502 1497 1495 1497 1500 1502 1506 1512 1518 1522 1529 1533 1533 1535 1537 1540 1542 1544 1545 1546 1547 1548 1551 1553 1554 1554 1553 1552
1487 1488 1487 1486 1490 1485 1488 1498 1524 1529 1541 1542 1509 1515 1506 1495 1491 1490 1489 1489 1498 1501 1506 1509 1514 1519 1524 1529 1531 1532 1533 1536 1538 1541 1542 1543 1545 1547 1548 1550 1550 1550 1548 1547
1502 1512 1494 1486 1487 1494 1491 1500 1529 1538 1553 1530 1510 1514 1499 1474 1477 1482 1486 1490 1496 1501 1504 1508 1511 1515 1519 1525 1528 1528 1531 1532 1535 1537 1540 1542 1543 1545 1545 1546 1546 1546 1547 1546
1501 1501 1490 1488 1489 1488 1492 1504 1493 1524 1528 1541 1513 1495 1480 1476 1481 1485 1485 1490 1496 1499 1504 1507 1510 1513 1517 1521 1525 1526 1527 1530 1532 1534 1537 1539 1540 1541 1542 1542 1542 1543 1543 1544
1497 1509 1501 1494 1496 1484 1487 1488 1509 1515 1540 1537 1514 1505 1500 1488 1486 1484 1489 1492 1495 1497 1502 1505 1509 1511 1513 1519 1523 1525 1526 1528 1530 1533 1535 1537 1539 1539 1539 1539 1539 1539 1538 1539
1489 1497 1503 1499 1500 1494 1493 1496 1491 1497 1518 1536 1543 1521 1484 1484 1481 1485 1486 1488 1488 1492 1497 1502 1505 1508 1512 1516 1519 1522 1523 1526 1528 1530 1533 1536 1537 1538 1537 1537 1537 1536 1536 1536
1479 1495 1515 1499 1480 1476 1481 1485 1493 1527 1513 1525 1533 1521 1481 1480 1479 1478 1480 1483 1485 1487 1491 1495 1499 1502 1506 1509 1512 1515 1518 1520 1524 1527 1530 1533 1535 1535 1535 1535 1534 1535 1535 1534
1473 1487 1517 1505 1490 1481 1482 1479 1479 1489 1507 1514 1537 1519 1480 1477 1479 1479 1479 1482 1484 1485 1488 1491 1494 1495 1497 1501 1504 1508 1511 1514 1516 1519 1523 1527 1529 1532 1533 1534 1534 1533 1533 1532
1468 1478 1495 1516 1497 1483 1486 1479 1478 1485 1520 1515 1517 1496 1482 1479 1477 1477 1479 1480 1481 1483 1485 1486 1487 1488 1489 1492 1495 1500 1504 1508 1511 1514 1517 1520 1525 1528 1530 1531 1531 1532 1531 1529
1470 1485 1479 1481 1480 1478 1477 1479 1478 1481 1486 1502 1495 1490 1479 1476 1475 1476 1476 1478 1480 1483 1487 1488 1484 1485 1486 1489 1494 1498 1502 1504 1506 1510 1512 1516 1520 1524 1527 1528 1527 1528 1526 1526
1468 1487 1480 1485 1480 1484 1485 1481 1478 1477 1474 1476 1478 1482 1471 1472 1472 1475 1477 1479 1481 1482 1483 1484 1484 1484 1484 1487 1490 1495 1497 1499 1502 1505 1509 1512 1516 1519 1521 1521 1522 1523 1522 1518
1475 1487 1497 1497 1494 1491 1505 1484 1477 1475 1473 1475 1485 1475 1469 1476 1475 1476 1477 1478 1481 1482 1483 1484 1485 1485 1486 1486 1488 1489 1491 1494 1497 1501 1504 1505 1507 1510 1510 1514 1515 1517 1515 1514
1478 1485 1497 1508 1507 1521 1483 1467 1467 1471 1474 1473 1475 1476 1477 1478 1479 1479 1479 1480 1481 1483 1483 1484 1485 1486 1486 1486 1485 1487 1489 1491 1494 1497 1499 1500 1502 1505 1506 1507 1511 1513 1512 1508
1471 1485 1500 1510 1513 1493 1476 1469 1470 1471 1482 1476 1477 1478 1478 1478 1479 1482 1483 1483 1483 1483 1484 1484 1484 1484 1484 1483 1483 1484 1486 1489 1490 1491 1494 1496 1499 1501 1501 1506 1508 1506 1502 1501
1473 1477 1493 1505 1512 1517 1484 1469 1467 1467 1495 1478 1477 1478 1479 1479 1494 1487 1485 1484 1484 1483 1482 1482 1482 1481 1480 1480 1479 1481 1485 1488 1490 1489 1491 1493 1494 1498 1502 1504 1503 1501 1498 1497
1492 1492 1500 1513 1516 1497 1470 1466 1467 1492 1496 1477 1478 1479 1480 1483 1485 1485 1484 1483 1482 1481 1481 1481 1480 1479 1478 1477 1476 1478 1478 1481 1486 1488 1486 1489 1494 1496 1496 1496 1494 1494 1493 1489
1482 1494 1504 1503 1508 1503 1465 1467 1478 1477 1475 1477 1478 1480 1480 1482 1482 1483 1483 1482 1480 1480 1480 1480 1479 1479 1479 1478 1478 1479 1480 1482 1480 1480 1487 1490 1491 1492 1491 1490 1489 1488 1486 1483
1476 1470 1482 1482 1486 1466 1464 1466 1468 1470 1473 1476 1477 1479 1479 1480 1482 1481 1482 1481 1480 1479 1479 1480 1479 1480 1481 1481 1481 1481 1482 1483 1485 1486 1487 1488 1488 1487 1486 1486 1484 1483 1481 1479
1454 1456 1469 1469 1463 1462 1462 1465 1467 1469 1472 1473 1475 1477 1478 1480 1480 1480 1481 1481 1480 1479 1480 1481 1482 1482 1483 1485 1485 1486 1485 1485 1484 1485 1485 1485 1484 1484 1482 1481 1480 1478 1477 1475
1455 1455 1461 1465 1461 1465 1467 1467 1467 1469 1471 1471 1474 1476 1477 1478 1479 1479 1481 1482 1483 1483 1483 1483 1483 1483 1484 1485 1485 1484 1483 1483 1483 1483 1483 1482 1481 1479 1478 1476 1475 1473 1472 1471
1448 1454 1465 1474 1461 1462 1469 1468 1468 1468 1471 1472 1474 1476 1478 1479 1480 1481 1482 1484 1484 1484 1484 1484 1485 1485 1485 1485 1485 1485 1485 1484 1482 1481 1480 1478 1477 1475 1474 1472 1469 1468 1465 1464